{"data":{"norad_id":33446,"epoch":"2026-05-25T02:15:54.875232Z","epoch_age_seconds":66595,"freshness":"FRESH","line1":"1 33446U 08061A   26145.09438513  .00000754  00000+0  98842-4 0  9996","line2":"2 33446  97.9304  78.7768 0015120 141.1994 219.0308 14.83148443942249","mean_motion":14.83148443,"eccentricity":0.001512,"inclination_deg":97.9304,"raan_deg":78.7768,"arg_perigee_deg":141.1994,"mean_anomaly_deg":219.0308,"bstar":9.8842e-5,"rev_number":94224,"period_min":97.090753578737,"perigee_km":608.82333360432,"apogee_km":629.98389642413,"semimajor_km":6997.5406150142,"source":"CELESTRAK","updated_at":"2026-05-25T13:38:13.163126Z"}}